TimeCST,TemperatureF,Dew PointF,Humidity,Sea Level PressureIn,VisibilityMPH,Wind Direction,Wind SpeedMPH,Gust SpeedMPH,PrecipitationIn,Events,Conditions,WindDirDegrees,DateUTC
12:57 AM,44.1,30.9,60,30.34,10.0,ESE,8.1,-,N/A,,Clear,110,2012-11-18 06:57:00
2:57 AM,43.0,28.9,58,30.33,10.0,ESE,6.9,-,N/A,,Clear,110,2012-11-18 08:57:00
3:57 AM,42.1,28.0,58,30.32,10.0,ESE,5.8,-,N/A,,Clear,120,2012-11-18 09:57:00
4:57 AM,42.1,28.9,60,30.32,10.0,ESE,8.1,-,N/A,,Clear,120,2012-11-18 10:57:00
5:57 AM,42.1,27.0,55,30.32,10.0,ESE,9.2,-,N/A,,Clear,110,2012-11-18 11:57:00
7:57 AM,44.1,27.0,51,30.33,10.0,ESE,5.8,-,N/A,,Clear,120,2012-11-18 13:57:00
8:57 AM,48.0,28.0,46,30.33,10.0,SE,5.8,-,N/A,,Clear,130,2012-11-18 14:57:00
9:57 AM,54.0,26.1,34,30.34,10.0,SSE,10.4,-,N/A,,Clear,150,2012-11-18 15:57:00
10:57 AM,59.0,27.0,29,30.33,10.0,South,6.9,-,N/A,,Clear,180,2012-11-18 16:57:00
11:57 AM,64.0,25.0,23,30.29,10.0,South,11.5,-,N/A,,Clear,170,2012-11-18 17:57:00
12:57 PM,64.9,26.1,23,30.27,10.0,South,15.0,21.9,N/A,,Clear,190,2012-11-18 18:57:00
1:57 PM,64.9,25.0,22,30.24,10.0,South,13.8,-,N/A,,Clear,180,2012-11-18 19:57:00
2:57 PM,64.0,25.0,23,30.22,10.0,South,8.1,-,N/A,,Clear,170,2012-11-18 20:57:00
3:57 PM,63.0,25.0,24,30.23,10.0,South,12.7,-,N/A,,Clear,180,2012-11-18 21:57:00
4:57 PM,60.1,25.0,26,30.23,10.0,SE,8.1,-,N/A,,Clear,140,2012-11-18 22:57:00
5:57 PM,57.9,26.1,30,30.23,10.0,SSE,9.2,-,N/A,,Clear,160,2012-11-18 23:57:00
6:57 PM,57.0,28.0,33,30.25,10.0,SE,9.2,-,N/A,,Clear,140,2012-11-19 00:57:00
7:57 PM,55.9,30.9,39,30.25,10.0,SE,9.2,-,N/A,,Partly Cloudy,140,2012-11-19 01:57:00
8:57 PM,55.0,33.1,43,30.25,10.0,SE,10.4,-,N/A,,Partly Cloudy,140,2012-11-19 02:57:00
9:57 PM,55.0,35.1,47,30.24,10.0,SSE,12.7,-,N/A,,Clear,150,2012-11-19 03:57:00
10:57 PM,54.0,35.1,49,30.23,10.0,SSE,12.7,-,N/A,,Clear,150,2012-11-19 04:57:00
11:57 PM,54.0,36.0,51,30.23,10.0,SSE,8.1,-,N/A,,Clear,150,2012-11-19 05:57:00